DMSP 5D-2 F13 DEB

Satellite information

Favourite Embed

Satellite Type and Status

DEBRISIN ORBIT

Key statistics

Satellite DMSP 5D-2 F13 DEB at a glance.

Uptime

11123

Days in orbit

Revolutions

≈ 14.2

Per day

Orbit

SSO

Sun Synchronous Orbit

Inclination

99.0

Latest

Satellite identification and parameters

Extended collection of information and parameters for DMSP 5D-2 F13 DEB.

Object identification

Identified? True

Debris? True

Object name: DMSP 5D-2 F13 DEB

International designator: 1995-015BH

Object number (NORAD): 40465

Object ID (CCSDS): 40465

Country: UNITED STATES OF AMERICA (US)

Current information (Y/N): Y

RCS size: SMALL

Orbital parameters

Period: 101.206 minutes

Inclination: 98.9832 deg

SMA: 7193.876 km

Apoapsis: 844.425 km

Periapsis: 787.058 km

RAAN: 258.017 deg

Eccentricy: 0.00398719

Argument of periapsis: 192.4119 deg

Mean anomaly: 167.6079 deg

Mean motion: 14.22847374 rev/day

Mean motion (dot): 0.00004605 rev/day2

B* drag term: 0.0020531068 1/REarth

Two-line elements (TLE)

Creation date: Aug. 29, 2025, 9:54 a.m.

Reference frame: TEME

Reference center: EARTH

Epoch: Aug. 29, 2025, 12:20 a.m. UTC

TLE line 0: 0 DMSP 5D-2 F13 DEB

TLE line 1: 1 40465U 95015BH 25241.01407540 .00004605 00000-0 20531-2 0 9992

TLE line 2: 2 40465 98.9832 258.0170 0039872 192.4119 167.6079 14.22847374538698

Live tracking on map

Real-time ground track for satellite DMSP 5D-2 F13 DEB.

In-orbit conjunctions

A list of the most updated potential collisions computed for object DMSP 5D-2 F13 DEB.

Target Orbit TCA Probability of collision Miss distance Type
DTUSAT SSO 2025-04-23 02:45:26 0.0001379523 485.0 (m) PAYLOAD
RADCAL LEO 2024-11-28 13:46:55 0.0002056322 112.0 (m) PAYLOAD
SL-16 DEB LEO 2024-11-15 20:09:48 0.0006768986 644.0 (m) DEBRIS

Associated space launch

Military meteorological satellite

DMSP 5D-2 F13 DEB was lifted into orbit during the mission ‘Atlas E | DMSP-5D2 F13’, on board a Atlas E space rocket.

The launch took place on March 24, 1995, 2:05 p.m. from Space Launch Complex 3W.

For more information about the launch, click the button.

Launch to space Atlas E | DMSP-5D2 F13
Atlas E | DMSP-5D2 F13

Agency: N/A

Status: Launch Successful

Launch date: March 24, 1995, 2:05 p.m. UTC

Rocket: Atlas E

Launch pad: Space Launch Complex 3W

Location: Vandenberg SFB, CA, USA

...

Latest news about this satellite

There are no fresh news available about this satellite. Check back as we update our databases every day.


Newsletter sign-up

Weekly statistics, charts and insights to help you stay on top of the space industry.